This demonstration page uses our WeatherBlox Daily Observations layout. Learn more.

Hourly Observations for July 25, 2020

Temp ( °F °C ) Dew Point ( °F °C ) Humidity (%) Winds ( mph kmh ) Pressure ( in mb ) Visibility ( mi km ) Precip ( " mm )
12:15 am 00:15 Clear 78 25.8 71 21.5 77 77 SSE 14 22 29.85 1011 10 16.0934 0 0
12:35 am 00:35 Clear 79 26 70 21.3 75 75 S 16 26 29.85 1011 10 16.0934 0 0
12:55 am 00:55 Clear 79 26 70 21.1 74 74 S 15 24 29.85 1011 10 16.0934 0 0
1:15 am 01:15 Partly Cloudy 79 26 70 21.1 74 74 S 15 24 29.86 1011 10 16.0934 0 0
1:35 am 01:35 Partly Cloudy 78 25.8 70 21.2 76 76 S 14 22 29.87 1012 10 16.0934 0 0
1:55 am 01:55 Mostly Cloudy 78 25.8 70 21.2 76 76 S 13 20 29.87 1012 10 16.0934 0 0
2:15 am 02:15 Cloudy 78 25.5 70 21.1 77 77 SSW 12 19 29.87 1012 10 16.0934 0 0
2:35 am 02:35 Mostly Cloudy 78 25.6 70 21.1 76 76 SSW 9 15 29.87 1012 10 16.0934 0 0
2:55 am 02:55 Mostly Cloudy 77 25.2 70 21.1 78 78 S 9 15 29.86 1011 10 16.0934 0 0
3:15 am 03:15 Partly Cloudy 77 25 70 21.1 79 79 S 9 15 29.85 1011 10 16.0934 0 0
3:35 am 03:35 Mostly Cloudy 76 24.6 70 21.1 81 81 SSE 10 17 29.85 1011 10 16.0934 0 0
3:55 am 03:55 Partly Cloudy 76 24.5 70 21 81 81 SSE 12 19 29.84 1011 10 16.0934 0 0
4:15 am 04:15 Clear 76 24.5 70 20.9 80 80 S 13 20 29.84 1011 10 16.0934 0 0
4:35 am 04:35 Clear 76 24.4 69 20.7 80 80 S 13 20 29.83 1010 10 16.0934 0 0
4:55 am 04:55 Clear 75 24.1 69 20.7 81 81 S 15 24 29.82 1010 10 16.0934 0 0
5:15 am 05:15 Clear 75 24 69 20.7 82 82 S 15 24 29.82 1010 10 16.0934 0 0
5:35 am 05:35 Clear 75 24 69 20.6 81 81 S 14 22 29.84 1011 10 16.0934 0 0
5:55 am 05:55 Clear 75 24 69 20.5 81 81 S 16 26 29.83 1010 10 16.0934 0 0
6:15 am 06:15 Clear 75 24 69 20.5 81 81 S 15 24 29.83 1010 10 16.0934 0 0
6:35 am 06:35 Sunny 75 23.7 69 20.3 81 81 S 14 22 29.84 1010 10 16.0934 0 0
6:55 am 06:55 Sunny 74 23.6 69 20.5 83 83 S 12 19 29.86 1011 10 16.0934 0 0
7:15 am 07:15 Sunny 75 23.8 69 20.4 81 81 S 12 19 29.87 1011 10 16.0934 0 0
7:35 am 07:35 Sunny 75 23.7 69 20.5 82 82 S 14 22 29.86 1011 10 16.0934 0 0
7:55 am 07:55 Sunny 75 24.1 69 20.5 80 80 S 15 24 29.85 1011 10 16.0934 0 0
8:15 am 08:15 Sunny 76 24.5 69 20.5 78 78 S 15 24 29.85 1011 10 16.0934 0 0
8:35 am 08:35 Sunny 78 25.4 69 20.3 73 73 S 17 28 29.84 1011 10 16.0934 0 0
8:55 am 08:55 Sunny 79 26.2 69 20.4 70 70 S 16 26 29.84 1010 10 16.0934 0 0
9:15 am 09:15 Sunny 80 26.9 68 20.2 67 67 S 15 24 29.83 1010 10 16.0934 0 0
9:35 am 09:35 Sunny 81 27.1 68 20.2 66 66 S 16 26 29.83 1010 10 16.0934 0 0
9:55 am 09:55 Sunny 82 27.7 68 20.1 63 63 SSW 20 31 29.83 1010 10 16.0934 0 0
10:15 am 10:15 Sunny 83 28.3 68 20.2 62 62 S 15 24 29.82 1010 10 16.0934 0 0
10:35 am 10:35 Sunny 84 29 68 20.2 59 59 SSW 21 33 29.82 1010 10 16.0934 0 0
10:55 am 10:55 Sunny 85 29.5 68 19.8 56 56 SSW 21 33 29.81 1010 10 16.0934 0 0
11:15 am 11:15 Sunny 86 30.2 68 20.1 55 55 SSW 17 28 29.81 1009 10 16.0934 0 0
11:35 am 11:35 Sunny 87 30.7 68 20.1 53 53 SSW 18 30 29.8 1009 10 16.0934 0 0
11:55 am 11:55 Sunny 88 31 68 20 52 52 S 20 31 29.8 1009 10 16.0934 0 0
12:15 pm 12:15 Sunny 89 31.4 69 20.3 52 52 S 15 24 29.8 1009 10 16.0934 0 0
12:35 pm 12:35 Sunny 89 31.6 68 19.9 50 50 S 16 26 29.79 1009 10 16.0934 0 0
12:55 pm 12:55 Sunny 90 32.1 69 20.5 50 50 S 16 26 29.78 1009 10 16.0934 0 0
1:15 pm 13:15 Sunny 90 32.3 69 20.7 50 50 S 18 30 29.78 1008 10 16.0934 0 0
1:35 pm 13:35 Sunny 90 32.4 69 20.4 49 49 S 17 28 29.77 1008 10 16.0934 0 0
1:55 pm 13:55 Sunny 91 32.9 69 20.6 48 48 S 16 26 29.78 1008 10 16.0934 0 0
2:15 pm 14:15 Sunny 92 33.2 70 20.9 48 48 S 14 22 29.76 1008 10 16.0934 0 0
2:35 pm 14:35 Sunny 92 33.2 70 21 49 49 S 15 24 29.75 1008 10 16.0934 0 0
2:55 pm 14:55 Sunny 93 33.7 71 21.6 49 49 S 15 24 29.75 1007 10 16.0934 0 0
3:15 pm 15:15 Sunny 93 33.7 71 21.6 49 49 S 15 24 29.74 1007 10 16.0934 0 0
3:35 pm 15:35 Sunny 93 33.9 71 21.4 48 48 S 15 24 29.74 1007 10 16.0934 0 0
3:55 pm 15:55 Sunny 93 34 72 22.1 50 50 S 16 26 29.74 1007 10 16.0934 0 0
4:15 pm 16:15 Sunny 93 34 71 21.6 48 48 S 12 19 29.74 1007 10 16.0934 0 0
4:35 pm 16:35 Sunny 93 34 71 21.5 48 48 S 20 31 29.73 1007 10 16.0934 0 0
4:55 pm 16:55 Sunny 93 34.1 71 21.6 48 48 S 17 28 29.73 1007 10 16.0934 0 0
5:15 pm 17:15 Sunny 93 34 71 21.8 49 49 S 15 24 29.72 1006 10 16.0934 0 0
5:35 pm 17:35 Sunny 93 34 71 21.7 49 49 S 15 24 29.72 1006 10 16.0934 0 0
5:55 pm 17:55 Sunny 92 33.6 73 22.5 52 52 S 13 20 29.71 1006 10 16.0934 0 0
6:15 pm 18:15 Sunny 92 33.3 72 22.1 52 52 SSE 13 20 29.71 1006 10 16.0934 0 0
6:35 pm 18:35 Sunny 91 33 71 21.7 51 51 S 15 24 29.72 1006 10 16.0934 0 0
6:55 pm 18:55 Sunny 91 32.6 71 21.8 53 53 SSE 14 22 29.72 1006 10 16.0934 0 0
7:15 pm 19:15 Sunny 88 31.3 72 22 58 58 SSE 14 22 29.73 1007 10 16.0934 0 0
7:35 pm 19:35 Sunny 87 30.6 71 21.6 59 59 SSE 13 20 29.72 1007 10 16.0934 0 0
7:55 pm 19:55 Sunny 86 29.9 70 21.2 60 60 SSE 7 11 29.74 1007 10 16.0934 0 0
8:15 pm 20:15 Sunny 84 29 70 21.3 63 63 SSE 7 11 29.75 1007 10 16.0934 0 0
8:35 pm 20:35 Sunny 83 28.4 71 21.5 66 66 SSE 8 13 29.75 1007 10 16.0934 0 0
8:55 pm 20:55 Sunny 82 28 71 21.5 68 68 SSE 10 17 29.73 1007 10 16.0934 0 0
9:15 pm 21:15 Clear 82 27.8 71 21.4 68 68 SSE 12 19 29.75 1007 10 16.0934 0 0
9:35 pm 21:35 Clear 82 27.8 70 21.1 67 67 SSE 12 19 29.76 1008 10 16.0934 0 0
9:55 pm 21:55 Clear 82 27.5 70 21 68 68 SSE 8 13 29.79 1009 10 16.0934 0 0
10:15 pm 22:15 Clear 81 27.3 70 21 69 69 SSE 10 17 29.8 1009 10 16.0934 0 0
10:35 pm 22:35 Clear 81 27 70 21.2 71 71 SSE 8 13 29.8 1009 10 16.0934 0 0
10:55 pm 22:55 Clear 81 27.1 70 21.2 70 70 SSE 8 13 29.81 1009 10 16.0934 0 0
11:15 pm 23:15 Clear with Nearby Thunderstorms 81 27 70 21.2 71 71 S 8 13 29.83 1010 10 16.0934 0 0
11:35 pm 23:35 Clear with Thunderstorms 81 27 70 21.1 70 70 S 8 13 29.84 1011 10 16.0934 0 0
11:55 pm 23:55 Partly Cloudy 80 26.5 70 21.2 73 73 W 10 17 29.87 1012 10 16.0934 0 0

Powered by AerisWeather